Home   Weather   Legnica   Past weeks
Flag for Poland

Past Weather in Legnica, Poland — Yesterday and Last 2 Weeks

Now
51 °F

Fog.


Feels Like: 44 °F
Forecast: 65 / 53 °F
Wind: 29 mph from Southwest

Location: Wroclaw Ii

Current Time: Oct 21, 2019 at 9:48:19 am

Latest Report: Oct 21, 2019 at 8:00 am


Visibility: 2 mi

Pressure: 30.01 "Hg

Humidity: 95%

Dew Point: 50 °F

Location of LegnicaLocation

Past Weather in Legnica — Graph

°F

Legnica Temperature Yesterday

Maximum temperature yesterday: 70 °F (at 4:00 pm)
Minimum temperature yesterday: 46 °F (at 7:00 am)
Average temperature yesterday: 57 °F

High & Low Weather Summary for the Past Weeks

 TemperatureHumidityPressure
High79 °F (Oct 14, 3:00 pm)97% (Oct 9, 1:00 am)30.19 "Hg (Oct 9, 1:00 am)
Low30 °F (Oct 7, 7:00 am)39% (Oct 7, 3:00 pm)29.71 "Hg (Oct 16, 3:00 am)
Average55 °F75%29.95 "Hg
* Reported Oct 6 8:00 am — Oct 21 8:00 am, Legnica. Weather by CustomWeather, © 2019

Note: Actual official high and low records may vary slightly from our data, if they occured in-between our weather recording intervals... More about our weather records

Advertising

Legnica Weather History for the Previous 24 Hours

Scroll right to see more
 ConditionsComfort  
Time TempWeatherWind HumidityBarometerVisibility
8:00 am
Mon, Oct 21
51 °FFog.1 mph95%30.01 "Hg3 mi
7:00 am51 °FFog.1 mph95%29.98 "Hg12 mi
6:00 am49 °FFog.1 mph94%29.97 "Hg11 mi
5:00 amN/APassing clouds.31 mphN/AN/A3 mi
4:00 am52 °FPassing clouds.3 mph94%29.97 "Hg19 mi
3:00 am51 °FOvercast.3 mph90%29.96 "Hg19 mi
2:00 am54 °FPassing clouds.3 mph90%29.95 "Hg25 mi
1:00 am53 °FPassing clouds.2 mph90%29.95 "Hg25 mi
12:00 am54 °FOvercast.3 mph91%29.95 "Hg25 mi
11:00 pm
Sun, Oct 20
55 °FOvercast.2 mph90%29.95 "Hg25 mi
10:00 pm57 °FOvercast.1 mph85%29.93 "Hg31 mi
9:00 pm57 °FPassing clouds.2 mph82%29.93 "Hg31 mi
8:00 pm58 °FPassing clouds.1 mph79%29.93 "Hg31 mi
7:00 pm61 °FPassing clouds.5 mph75%29.93 "Hg31 mi
6:00 pm61 °FPassing clouds.3 mph75%29.92 "Hg31 mi
5:00 pm68 °FPassing clouds.5 mph62%29.90 "Hg31 mi
4:00 pm70 °FScattered clouds.5 mph59%29.90 "Hg31 mi
3:00 pm70 °FScattered clouds.6 mph59%29.90 "Hg31 mi
2:00 pm70 °FPartly sunny.5 mph60%29.91 "Hg31 mi
1:00 pm69 °FPartly sunny.6 mph62%29.91 "Hg31 mi
12:00 pm67 °FPartly sunny.5 mph65%29.92 "Hg31 mi
11:00 am64 °FPassing clouds.5 mph72%29.93 "Hg31 mi
10:00 am58 °FPassing clouds.3 mph84%29.93 "Hg9 mi
9:00 am53 °FFog.1 mph96%29.93 "Hg4 mi
Weather by CustomWeather, © 2019

See weather overview